Zurück zum Katalog

NOAA 16 DEB

AktivPO
NORAD 41418·DEBRIS·🇺🇸 United States

Gestartet Sep 21, 2000 von Vandenberg Space Force Base

Loading…

Nächste Überflüge (nächste 24 Stunden)

TLE

AktuellSource: Space-Track

Epoche: Sep 14, 2026, 10:57 UTC

1 41418U 00055KX  26257.45635709  .00003795  00000-0  94067-3 0  9992
2 41418  99.0005 142.1680 0024350 200.1962 159.8271 14.52381382550234

Verfolge NOAA 16 DEB in Echtzeit mit AllMySat

Download on the App Store